This demonstration page uses our WeatherBlox Daily Observations layout. Learn more.

Left ArrowRight Arrow

39.51506, -84.39828

Hourly Observations for October 16, 2018

Temp ( °F °C ) Dew Point ( °F °C ) Humidity (%) Winds ( mph kmh ) Pressure ( in mb ) Visibility ( mi km ) Precip ( " mm )
12:15 am 00:15 Clear 40 4.4 39 4 97 97 Calm 30.33 1027 10 16.0934 0 0
12:35 am 00:35 Clear 40 4.2 39 3.7 97 97 Calm 30.33 1027 10 16.0934 0 0
12:55 am 00:55 Clear 40 4.3 38 3.6 95 95 Calm 30.33 1027 10 16.0934 0 0
1:15 am 01:15 Clear 40 4.4 38 3.6 95 95 SW 6 9 30.33 1027 10 16.0934 0 0
1:35 am 01:35 Clear 40 4.2 38 3.6 96 96 Calm 30.33 1027 10 16.0934 0 0
1:55 am 01:55 Clear 39 3.7 37 2.9 95 95 Calm 30.33 1027 10 16.0934 0 0
2:15 am 02:15 Clear 40 4.3 38 3.4 94 94 Calm 30.33 1027 10 16.0934 0 0
2:35 am 02:35 Clear 40 4.3 38 3.5 95 95 Calm 30.33 1027 10 16.0934 0 0
2:55 am 02:55 Clear 40 4.3 38 3.1 92 92 Calm 30.33 1027 10 16.0934 0 0
3:15 am 03:15 Clear 40 4.2 37 2.8 91 91 Calm 30.33 1027 10 16.0934 0 0
3:35 am 03:35 Clear 39 4 37 2.7 91 91 Calm 30.33 1027 10 16.0934 0 0
3:55 am 03:55 Clear 38 3.5 36 2.3 92 92 Calm 30.33 1027 10 16.0934 0 0
4:15 am 04:15 Clear 37 2.7 35 1.9 95 95 Calm 30.33 1027 10 16.0934 0 0
4:35 am 04:35 Clear 37 2.5 35 1.8 95 95 N 3 6 30.33 1027 10 16.0934 0 0
4:55 am 04:55 Clear 37 2.8 36 2 95 95 Calm 30.33 1027 10 16.0934 0 0
5:15 am 05:15 Clear 37 2.7 35 1.9 95 95 Calm 30.33 1027 10 16.0934 0 0
5:35 am 05:35 Clear 36 2.3 35 1.5 95 95 Calm 30.33 1027 10 16.0934 0 0
5:55 am 05:55 Clear 36 2.4 35 1.5 94 94 Calm 30.33 1027 10 16.0934 0 0
6:15 am 06:15 Clear 35 1.8 34 0.9 94 94 Calm 30.33 1027 10 16.0934 0 0
6:35 am 06:35 Clear 36 2.4 35 1.5 94 94 Calm 30.33 1027 10 16.0934 0 0
6:55 am 06:55 Clear 36 2.4 35 1.5 94 94 Calm 30.33 1027 10 16.0934 0 0
7:15 am 07:15 Clear 36 2.1 35 1.4 95 95 Calm 30.33 1027 10 16.0934 0 0
7:35 am 07:35 Clear 36 2 35 1.5 97 97 Calm 30.33 1027 10 16.0934 0 0
7:55 am 07:55 Sunny 35 1.9 35 1.4 97 97 Calm 30.33 1027 7 11.26538 0 0
8:15 am 08:15 Sunny with Mist and Fog 35 1.6 34 1.2 97 97 Calm 30.33 1027 7 11.26538 0 0
8:35 am 08:35 Sunny with Mist and Fog 35 1.7 35 1.4 98 98 Calm 30.33 1027 5 8.0467 0 0
8:55 am 08:55 Sunny with Mist and Fog 35 1.8 35 1.6 99 99 Calm 30.33 1027 5 8.0467 0 0
9:15 am 09:15 Sunny 37 2.7 36 2.4 98 98 Calm 30.33 1027 7 11.26538 0 0
9:35 am 09:35 Sunny 39 4 37 2.8 92 92 Calm 30.36 1028 10 16.0934 0 0
9:55 am 09:55 Sunny 40 4.7 36 2 83 83 Calm 30.36 1028 10 16.0934 0 0
10:15 am 10:15 Sunny 42 5.8 37 2.9 82 82 Calm 30.33 1027 10 16.0934 0 0
10:35 am 10:35 Sunny 45 7 35 1.6 69 69 Calm 30.3 1026 10 16.0934 0 0
10:55 am 10:55 Sunny 46 7.7 33 0.3 60 60 Calm 30.3 1026 10 16.0934 0 0
11:15 am 11:15 Sunny 47 8.1 33 0.8 60 60 SSE 5 7 30.3 1026 10 16.0934 0 0
11:35 am 11:35 Sunny 47 8.6 34 1.1 60 60 SSW 5 7 30.3 1026 10 16.0934 0 0
11:55 am 11:55 Sunny 47 8.4 34 1 60 60 SSW 7 11 30.3 1026 10 16.0934 0 0
12:15 pm 12:15 Sunny 48 9.1 34 1.1 58 58 SSW 6 9 30.27 1025 10 16.0934 0 0
12:35 pm 12:35 Sunny 49 9.5 34 1.3 57 57 S 7 11 30.27 1025 10 16.0934 0 0
12:55 pm 12:55 Sunny 49 9.6 34 1.2 56 56 SSW 6 9 30.24 1024 10 16.0934 0 0
1:15 pm 13:15 Sunny 50 10.1 34 1.1 54 54 S 7 11 30.24 1024 10 16.0934 0 0
1:35 pm 13:35 Sunny 51 10.6 35 1.4 53 53 SSW 6 9 30.24 1024 10 16.0934 0 0
1:55 pm 13:55 Sunny 52 11.1 34 1.3 51 51 SSW 7 11 30.24 1024 10 16.0934 0 0
2:15 pm 14:15 Sunny 53 11.5 36 2 52 52 S 9 15 30.21 1023 10 16.0934 0 0
2:35 pm 14:35 Sunny 54 12 35 1.9 50 50 SSW 9 15 30.21 1023 10 16.0934 0 0
2:55 pm 14:55 Sunny 54 12 37 2.5 53 53 SSW 10 17 30.21 1023 10 16.0934 0 0
3:15 pm 15:15 Sunny 53 11.6 35 1.7 51 51 S 9 15 30.18 1022 10 16.0934 0 0
3:35 pm 15:35 Sunny 53 11.6 35 1.6 51 51 SSW 9 15 30.18 1022 10 16.0934 0 0
3:55 pm 15:55 Sunny 52 11.3 36 2 53 53 S 7 11 30.18 1022 10 16.0934 0 0
4:15 pm 16:15 Sunny 53 11.5 37 2.6 55 55 SSW 9 15 30.18 1022 10 16.0934 0 0
4:35 pm 16:35 Sunny 52 11.3 36 2 53 53 SSW 10 17 30.18 1022 10 16.0934 0 0
4:55 pm 16:55 Sunny 52 11.2 37 2.5 55 55 SSW 9 15 30.15 1021 10 16.0934 0 0
5:15 pm 17:15 Sunny 52 11.3 36 2.3 54 54 SSW 7 11 30.15 1021 10 16.0934 0 0
5:35 pm 17:35 Sunny 52 11.1 36 2.4 55 55 SSW 10 17 30.15 1021 10 16.0934 0 0
5:55 pm 17:55 Sunny 52 11.1 36 2 54 54 SSW 10 17 30.15 1021 10 16.0934 0 0
6:15 pm 18:15 Sunny 51 10.7 36 2.4 57 57 SW 9 15 30.15 1021 10 16.0934 0 0
6:35 pm 18:35 Sunny 50 9.9 37 2.9 62 62 SW 8 13 30.15 1021 10 16.0934 0 0
6:55 pm 18:55 Sunny 48 9.1 37 2.8 65 65 WSW 5 7 30.15 1021 10 16.0934 0 0
7:15 pm 19:15 Clear 47 8.2 38 3.1 71 71 SW 5 7 30.15 1021 10 16.0934 0 0
7:35 pm 19:35 Clear 46 7.8 37 2.8 71 71 SW 6 9 30.15 1021 10 16.0934 0 0
7:55 pm 19:55 Clear 46 7.7 37 2.7 71 71 SSW 5 7 30.15 1021 10 16.0934 0 0
8:15 pm 20:15 Clear 46 7.5 37 2.6 71 71 SW 5 7 30.15 1021 10 16.0934 0 0
8:35 pm 20:35 Clear 46 7.6 37 2.6 71 71 Calm 30.15 1021 10 16.0934 0 0
8:55 pm 20:55 Clear 46 7.7 36 2.3 69 69 SSW 3 6 30.15 1021 10 16.0934 0 0
9:15 pm 21:15 Clear 43 6.3 37 2.6 77 77 SW 5 7 30.15 1021 10 16.0934 0 0
9:35 pm 21:35 Clear 43 6.2 37 2.6 78 78 SSW 5 7 30.15 1021 10 16.0934 0 0
9:55 pm 21:55 Clear 43 6 36 2.3 77 77 S 5 7 30.18 1022 10 16.0934 0 0
10:15 pm 22:15 Clear 42 5.7 37 2.6 81 81 SSW 5 7 30.18 1022 10 16.0934 0 0
10:35 pm 22:35 Clear 42 5.7 37 2.8 82 82 SSW 6 9 30.18 1022 10 16.0934 0 0
10:55 pm 22:55 Clear 42 5.6 37 2.9 83 83 SSW 6 9 30.18 1022 10 16.0934 0 0
11:15 pm 23:15 Clear 42 5.5 37 2.9 84 84 SW 5 7 30.18 1022 10 16.0934 0 0
11:35 pm 23:35 Clear 42 5.5 38 3.1 85 85 SW 5 7 30.18 1022 10 16.0934 0 0
11:55 pm 23:55 Clear 42 5.5 37 2.9 84 84 SW 5 7 30.18 1022 10 16.0934 0 0

Powered by AerisWeather